Location: *
(51.0333°S, 178.4667°E)
Time: 12:37:47
(UTC+00:00)

Thor Agena Rocket - Pass Details

Date: 15 November 2019
Orbit: 759 x 808 km, 99.0° (Epoch: 14 December)

Event Time Altitude Azimuth Distance (km) Brightness Sun altitude
Exits shadow 08:45:40 - 19° (NNE) 2,396 5.5 -9.6°
Reaches altitude 10° 08:45:48 10° 19° (NNE) 2,340 5.5 -9.6°
Maximum altitude 08:50:59 87° 108° (ESE) 806 3.6 -10.2°
Drops below altitude 10° 08:56:19 10° 195° (SSW) 2,402 7.2 -10.7°
Sets 08:58:41 0° 195° (SSW) 3,346 8.1 -11.0°
